Flag for Germany Weather past 2 weeks in Bad Vilbel, Hesse, Germany

Now
49 °F

Clear.


Feels Like: 48 °F
Forecast: 41 / 60 °F
Wind: 3 mph from Southwest

Location: Frankfurt / M-Flughafen

Current Time: Sep 22, 2014 at 10:54:52 PM

Latest Report: Sep 22, 2014 at 10:00 PM


Visibility: 19 mi

Pressure: 30.16 "Hg

Humidity: 86%

Dew point: 45 °F

Location of Bad VilbelLocation

Historic Weather in Bad Vilbel — Graph

°F

Bad Vilbel temperature yesterday

Maximum temperature yesterday: 66 °F (at 2:00 PM)
Minimum temperature yesterday: 58 °F (at 10:00 PM)
Average temperature yesterday: 61 °F

Past Weeks' High & Low Weather Summary

 TemperatureHumidityPressure
High76 °F (Sep 17, 4:00 PM)98% (Sep 21, 2:00 AM)30.19 "Hg (Sep 21, 2:00 AM)
Low47 °F (Sep 11, 4:00 AM)43% (Sep 9, 6:00 PM)29.85 "Hg (Sep 18, 5:00 PM)
Average62 °F79%30.02 "Hg
* Reported Sep 7 10:00 PM — Sep 22 10:00 PM, Bad Vilbel, Weather by CustomWeather, © 2014

Note: Actual official high and low records may vary slightly from our data, if they occured in-between our weather recording intervals... More about our weather records

Advertising

Bad Vilbel weather history for previous 24 hours

 ConditionsComfort  
Time TempWeatherWind HumidityBarometerVisibility
10:00 PM
Sep 22
49 °FClear.3 mph86%30.16 "Hg19 mi
9:00 PM50 °FPassing clouds.3 mph81%30.15 "Hg28 mi
8:00 PM51 °FPassing clouds.3 mph75%30.13 "Hg28 mi
7:00 PM55 °FPassing clouds.3 mph64%30.13 "Hg28 mi
6:00 PM56 °FPassing clouds.5 mph61%30.11 "Hg28 mi
5:00 PM56 °FPassing clouds.6 mph66%30.09 "Hg25 mi
4:00 PM53 °FThunderstorms. Passing clouds.3 mph81%30.07 "Hg22 mi
3:00 PM54 °FThundershowers. Low clouds.12 mph64%30.07 "Hg2 mi
2:00 PM57 °FOvercast.7 mph74%30.05 "Hg11 mi
1:00 PM56 °FSprinkles. Overcast.7 mph81%30.07 "Hg9 mi
12:00 PM57 °FOvercast.6 mph71%30.08 "Hg10 mi
11:00 AM56 °FOvercast.5 mph74%30.10 "Hg10 mi
10:00 AM56 °FOvercast.6 mph76%30.10 "Hg10 mi
9:00 AM55 °FOvercast.6 mph77%30.10 "Hg10 mi
8:00 AM54 °FOvercast.5 mph79%30.10 "Hg10 mi
7:00 AM54 °FPassing clouds.5 mph82%30.10 "Hg10 mi
6:00 AM54 °FPassing clouds.3 mph83%30.10 "Hg16 mi
5:00 AM53 °FPassing clouds.2 mph87%30.09 "Hg16 mi
4:00 AM54 °FPassing clouds.5 mph85%30.10 "Hg16 mi
3:00 AM53 °FPassing clouds.3 mph87%30.10 "Hg16 mi
2:00 AM54 °FClear.5 mph85%30.11 "Hg22 mi
1:00 AM54 °FClear.5 mph85%30.09 "Hg22 mi
12:00 AM55 °FPassing clouds.3 mph86%30.09 "Hg22 mi
10:00 PM
Sep 21
58 °FPassing clouds.5 mph84%30.06 "Hg22 mi
Weather by CustomWeather, © 2014

See weather overviewHow to use our weather pages